{"data":{"norad_id":53735,"epoch":"2026-09-20T22:53:31.045920Z","epoch_age_seconds":42085,"freshness":"FRESH","line1":"1 53735U 22107AM  26263.95383155  .00000315  00000+0  20466-4 0  9993","line2":"2 53735  53.1598  91.3110 0001135  90.2282 269.8851 15.34390865224140","mean_motion":15.34390865,"eccentricity":0.0001135,"inclination_deg":53.1598,"raan_deg":91.311,"arg_perigee_deg":90.2282,"mean_anomaly_deg":269.8851,"bstar":2.0466e-5,"rev_number":22414,"period_min":93.848316804206,"perigee_km":461.95395303799,"apogee_km":463.50682993586,"semimajor_km":6840.8673914869,"source":"CELESTRAK","updated_at":"2026-09-21T09:00:32.988678Z"}}